Stanley, ND

5:01 AM CDT on August 18, 2017 (GMT -0500)
Stanley

Weather History for K08D - January, 2014

Change the Weather History Date:

Saturday, January 11, 2014

  Actual Average (KMIB) Record (KMIB)
Temperature  
Mean Temperature 26 °F -  
Max Temperature 37 °F 15 °F 44 °F (2006)
Min Temperature 14 °F 0 °F -27 °F (1997)
Degree Days  
Heating Degree Days 40    
Moisture  
Dew Point 22 °F    
Average Humidity 93    
Maximum Humidity 100    
Minimum Humidity 80    
Precipitation  
Precipitation 0.00 in - - ()
Sea Level Pressure  
Sea Level Pressure 29.46 in    
Wind  
Wind Speed 12 mph (WSW)    
Max Wind Speed 18 mph    
Max Gust Speed 24 mph    
Visibility 10 miles    
Events Rain    
Averages and records for this station are not official NWS values.
T = Trace of Precipitation, MM = Missing Value Source: NWS Daily Summary

Daily Weather History Graph

Daily Weather History Graph

Search for Another Location

Airport or City:

Trip Planner

Search our weather history database for the weather conditions in past years. The results will help you decide how hot, cold, wet, or windy it might be!

Date:

Astronomy

Jan. 11, 2014 Rise Set
Actual Time 8:38 AM CST 5:17 PM CST
Civil Twilight 8:02 AM CST 5:53 PM CST
Nautical Twilight 7:23 AM CST 6:32 PM CST
Astronomical Twilight 6:45 AM CST 7:10 PM CST
Moon 2:06 PM CST (1/11) 4:40 AM CST (1/11)
Length of Visible Light 9h 51m
Length of Day
8h 39m
Waxing Gibbous, 83% of the Moon is Illuminated
Jan 11
Waxing Gibbous
Jan 15
Full
Jan 23
Last Quarter
Jan 30
New
Feb 6
First Quarter

Hourly Weather History & Observations

Time (CST) Temp. Windchill Dew Point Humidity Pressure Visibility Wind Dir Wind Speed Gust Speed Precip Events Conditions
12:15 AM 24.8 °F 14.6 °F 24.8 °F 100% 29.57 in 10.0 mi NW 10.4 mph - N/A   Overcast
12:35 AM 23.0 °F 12.4 °F 23.0 °F 100% 29.58 in 10.0 mi NW 10.4 mph - N/A   Overcast
12:55 AM 23.0 °F 11.7 °F 23.0 °F 100% 29.58 in 10.0 mi NW 11.5 mph - N/A   Overcast
1:15 AM 23.0 °F 11.1 °F 23.0 °F 100% 29.59 in 10.0 mi WNW 12.7 mph - N/A   Overcast
1:35 AM 23.0 °F 10.6 °F 23.0 °F 100% 29.60 in 10.0 mi WNW 13.8 mph - N/A   Overcast
1:55 AM 23.0 °F 10.6 °F 23.0 °F 100% 29.59 in 10.0 mi WNW 13.8 mph 19.6 mph N/A   Overcast
2:15 AM 23.0 °F 11.1 °F 23.0 °F 100% 29.60 in 10.0 mi West 12.7 mph - N/A   Overcast
2:35 AM 21.2 °F 9.5 °F 21.2 °F 100% 29.61 in 10.0 mi West 11.5 mph - N/A   Overcast
2:55 AM 19.4 °F 5.5 °F 19.4 °F 100% 29.62 in 10.0 mi WNW 15.0 mph - N/A   Mostly Cloudy
3:15 AM 19.4 °F 6.6 °F 19.4 °F 100% 29.61 in 10.0 mi WNW 12.7 mph - N/A   Partly Cloudy
3:35 AM 17.6 °F 3.7 °F 17.6 °F 100% 29.62 in 10.0 mi West 13.8 mph - N/A   Partly Cloudy
3:55 AM 19.4 °F 6.6 °F 17.6 °F 93% 29.62 in 10.0 mi West 12.7 mph - N/A   Clear
4:15 AM 17.6 °F 5.0 °F 15.8 °F 93% 29.62 in 10.0 mi WNW 11.5 mph - N/A   Clear
4:35 AM 15.8 °F 0.9 °F 15.8 °F 100% 29.63 in 10.0 mi WNW 15.0 mph 21.9 mph N/A   Clear
4:55 AM 15.8 °F 0.3 °F 14.0 °F 93% 29.64 in 10.0 mi WNW 16.1 mph - N/A   Clear
5:15 AM 15.8 °F 1.4 °F 14.0 °F 93% 29.64 in 10.0 mi WNW 13.8 mph - N/A   Scattered Clouds
5:35 AM 15.8 °F 2.7 °F 15.8 °F 100% 29.64 in 10.0 mi WNW 11.5 mph - N/A   Mostly Cloudy
5:55 AM 15.8 °F 0.9 °F 14.0 °F 93% 29.64 in 10.0 mi WNW 15.0 mph - N/A   Scattered Clouds
6:15 AM 15.8 °F -0.6 °F 14.0 °F 93% 29.63 in 10.0 mi WNW 18.4 mph 23.0 mph N/A   Clear
6:35 AM 15.8 °F 0.3 °F 15.8 °F 100% 29.63 in 10.0 mi WNW 16.1 mph 21.9 mph N/A   Clear
6:55 AM 15.8 °F 0.3 °F 15.8 °F 100% 29.64 in 10.0 mi WNW 16.1 mph 21.9 mph N/A   Clear
7:15 AM 15.8 °F 1.4 °F 14.0 °F 93% 29.64 in 10.0 mi West 13.8 mph 21.9 mph N/A   Clear
7:35 AM 14.0 °F -1.4 °F 14.0 °F 100% 29.63 in 10.0 mi WNW 15.0 mph 19.6 mph N/A   Clear
7:55 AM 14.0 °F -0.2 °F 14.0 °F 100% 29.62 in 10.0 mi WNW 12.7 mph 19.6 mph N/A   Clear
8:15 AM 14.0 °F -0.8 °F 12.2 °F 93% 29.63 in 10.0 mi West 13.8 mph - N/A   Clear
8:35 AM 14.0 °F 1.2 °F 14.0 °F 100% 29.63 in 10.0 mi West 10.4 mph - N/A   Clear
8:55 AM 14.0 °F 1.2 °F 12.2 °F 93% 29.64 in 10.0 mi West 10.4 mph - N/A   Clear
9:15 AM 14.0 °F 0.5 °F 14.0 °F 100% 29.64 in 10.0 mi West 11.5 mph - N/A   Clear
9:35 AM 14.0 °F -0.2 °F 14.0 °F 100% 29.64 in 10.0 mi West 12.7 mph - N/A   Clear
9:55 AM 15.8 °F 0.9 °F 15.8 °F 100% 29.63 in 10.0 mi West 15.0 mph - N/A   Clear
10:15 AM 17.6 °F 3.7 °F 15.8 °F 93% 29.62 in 10.0 mi West 13.8 mph - N/A   Clear
10:35 AM 17.6 °F 4.3 °F 15.8 °F 93% 29.61 in 10.0 mi West 12.7 mph - N/A   Partly Cloudy
10:55 AM 19.4 °F 7.2 °F 17.6 °F 93% 29.61 in 10.0 mi WSW 11.5 mph - N/A   Mostly Cloudy
11:15 AM 19.4 °F 6.6 °F 17.6 °F 93% 29.60 in 10.0 mi WSW 12.7 mph - N/A   Mostly Cloudy
11:35 AM 19.4 °F 8.6 °F 17.6 °F 93% 29.59 in 10.0 mi WSW 9.2 mph - N/A   Scattered Clouds
11:55 AM 23.0 °F 14.7 °F 19.4 °F 86% 29.57 in 10.0 mi West 6.9 mph - N/A   Mostly Cloudy
12:15 PM 23.0 °F 17.0 °F 19.4 °F 86% 29.56 in 10.0 mi SSW 4.6 mph - N/A   Overcast
12:35 PM 23.0 °F 14.7 °F 19.4 °F 86% 29.53 in 10.0 mi SSW 6.9 mph - N/A   Overcast
12:55 PM 24.8 °F 16.9 °F 21.2 °F 86% 29.52 in 10.0 mi SW 6.9 mph - N/A   Overcast
1:15 PM 24.8 °F 15.3 °F 23.0 °F 93% 29.50 in 10.0 mi SW 9.2 mph - N/A   Overcast
1:35 PM 26.6 °F 17.5 °F 23.0 °F 86% 29.48 in 10.0 mi SSW 9.2 mph - N/A   Overcast
1:55 PM 26.6 °F 19.1 °F 23.0 °F 86% 29.47 in 10.0 mi SSW 6.9 mph - N/A   Overcast
2:15 PM 28.4 °F 19.7 °F 23.0 °F 80% 29.45 in 10.0 mi South 9.2 mph - N/A   Overcast
2:35 PM 28.4 °F 21.2 °F 23.0 °F 80% 29.44 in 10.0 mi South 6.9 mph - N/A   Mostly Cloudy
2:55 PM 28.4 °F 19.1 °F 23.0 °F 80% 29.42 in 10.0 mi South 10.4 mph - N/A   Mostly Cloudy
3:15 PM 28.4 °F 18.5 °F 23.0 °F 80% 29.41 in 10.0 mi SSE 11.5 mph - N/A   Partly Cloudy
3:35 PM 26.6 °F 17.5 °F 23.0 °F 86% 29.40 in 10.0 mi SSE 9.2 mph - N/A   Clear
3:55 PM 26.6 °F 17.5 °F 24.8 °F 93% 29.38 in 10.0 mi SSE 9.2 mph - N/A   Mostly Cloudy
4:15 PM 26.6 °F 17.5 °F 24.8 °F 93% 29.36 in 10.0 mi SSE 9.2 mph - N/A   Mostly Cloudy
4:35 PM 26.6 °F 16.2 °F 24.8 °F 93% 29.35 in 10.0 mi SSE 11.5 mph - N/A   Scattered Clouds
4:55 PM 28.4 °F 19.1 °F 24.8 °F 86% 29.33 in 10.0 mi SSE 10.4 mph - N/A   Mostly Cloudy
5:15 PM 26.6 °F 17.5 °F 24.8 °F 93% 29.31 in 10.0 mi SE 9.2 mph - N/A   Mostly Cloudy
5:35 PM 26.6 °F 16.2 °F 24.8 °F 93% 29.30 in 10.0 mi SSE 11.5 mph - N/A   Clear
5:55 PM 26.6 °F 15.2 °F 24.8 °F 93% 29.29 in 10.0 mi South 13.8 mph - N/A   Mostly Cloudy
6:15 PM 26.6 °F 16.2 °F 24.8 °F 93% 29.28 in 10.0 mi South 11.5 mph - N/A   Overcast
6:35 PM 28.4 °F 18.5 °F 26.6 °F 93% 29.27 in 10.0 mi South 11.5 mph - N/A   Overcast
6:55 PM 28.4 °F 18.0 °F 26.6 °F 93% 29.24 in 10.0 mi South 12.7 mph - N/A   Overcast
7:15 PM 28.4 °F 18.5 °F 26.6 °F 93% 29.23 in 10.0 mi South 11.5 mph - N/A   Overcast
7:35 PM 28.4 °F 15.8 °F 26.6 °F 93% 29.21 in 10.0 mi South 18.4 mph - N/A   Overcast
7:55 PM 28.4 °F 16.6 °F 26.6 °F 93% 29.21 in 10.0 mi South 16.1 mph - N/A   Overcast
8:15 PM 30.2 °F 18.9 °F 28.4 °F 93% 29.20 in 10.0 mi South 16.1 mph 20.7 mph N/A   Overcast
8:35 PM 30.2 °F 21.3 °F 28.4 °F 93% 29.18 in 10.0 mi South 10.4 mph - N/A   Overcast
8:55 PM 30.2 °F 26.7 °F 28.4 °F 93% 29.18 in 10.0 mi SE 3.5 mph - N/A   Overcast
9:15 PM 32.0 °F 25.6 °F 28.4 °F 87% 29.18 in 10.0 mi South 6.9 mph - N/A   Overcast
9:35 PM 32.0 °F 25.6 °F 28.4 °F 87% 29.18 in 10.0 mi SW 6.9 mph - N/A   Overcast
9:55 PM 32.0 °F 25.6 °F 28.4 °F 87% 29.18 in 10.0 mi SSW 6.9 mph - N/A   Overcast
10:15 PM 32.0 °F 22.5 °F 32.0 °F 100% 29.17 in 10.0 mi SSW 12.7 mph - N/A   Overcast
10:35 PM 33.8 °F 23.9 °F 32.0 °F 93% 29.18 in 10.0 mi SW 15.0 mph 18.4 mph N/A Rain Light Rain
10:55 PM 37.4 °F 27.5 °F 33.8 °F 87% 29.17 in 10.0 mi West 18.4 mph 24.2 mph N/A Rain Light Rain
11:15 PM 35.6 °F 27.5 °F 33.8 °F 93% 29.17 in 10.0 mi SW 11.5 mph - N/A   Mostly Cloudy
11:35 PM 35.6 °F 27.5 °F 32.0 °F 87% 29.18 in 10.0 mi WSW 11.5 mph - N/A   Overcast
11:55 PM 35.6 °F 25.2 °F 33.8 °F 93% 29.19 in 10.0 mi WSW 18.4 mph 21.9 mph N/A   Overcast